#timestamp,LO_Frequency,Hit 
1501372815.0,286047007.9,N
1501372815.9,286047007.9,N
1501372835.7,286047012.3,N
1501372855.6,286047012.1,N
1501372875.4,286047012.1,N
1501372895.2,286047014.9,N
1501372915.1,286047014.2,N
1501372916.0,286047014.2,N
1501372935.8,286047016.8,N
1501372955.6,286047013.4,N
1501372975.5,286047012.5,N
1501372995.3,286047015.3,N
1501373015.1,286047015.4,N
1501373035.8,286047012.2,N
1501373055.7,286047011.6,N
1501373075.5,286047013.2,N
1501373095.3,286047015.5,N
1501373115.2,286047011.3,N
1501373135.9,286047013.0,N
1501373155.7,286047013.6,N
1501373175.6,286047013.3,N
1501373195.4,286047012.9,N
1501373215.2,286047013.7,N
1501373235.1,286047015.1,N
1501373236.0,286047015.1,N
1501373255.8,286047012.6,N
1501373275.6,286047015.4,N
1501373295.4,286047012.5,N
1501373315.3,286047011.4,N
1501373335.1,286047015.5,N
1501373355.8,286047012.5,N
1501373375.7,286047012.8,N
1501373395.5,286047012.6,N
1501373415.3,286047013.6,N
1501373435.2,286047012.4,N
1501373455.9,286047011.5,N
1501373475.7,286047015.6,N
1501373495.6,286047013.4,N
1501373515.4,286047013.4,N
1501373535.2,286047012.9,N
1501373555.0,286047011.1,N
1501373555.9,286047011.1,N
1501373575.8,286047012.1,N
1501373595.6,286047009.7,N
1501373615.4,286047011.4,N
1501373635.3,286047013.9,N
1501373655.1,286047015.1,N
1501373675.8,286047015.4,N
1501373695.7,286047012.5,N
1501373715.5,286047013.3,N
1501373735.3,286047015.3,N
1501373755.2,286047016.8,Y
1501373775.9,286047000.5,N
1501373795.7,286047002.6,N
1501373815.6,286047000.2,N
1501373835.4,286047000.2,N
1501373855.2,286047000.8,N
1501373875.1,286047001.9,N
1501373876.0,286047001.9,N
1501373895.8,286047002.5,N
1501373915.6,286046998.6,N
1501373935.4,286046998.3,N
1501373955.3,286046999.9,N
1501373975.1,286047002.8,N
1501373995.8,286047001.1,N
1501374015.7,286046998.1,N
1501374035.5,286046999.0,N
1501374055.3,286047001.0,N
1501374075.2,286046998.1,N
1501374095.9,286046999.6,N
1501374115.7,286046999.1,N
1501374135.6,286046997.4,N
1501374155.4,286046997.3,N
1501374175.2,286046997.4,N
1501374195.0,286046998.8,N
1501374195.9,286046998.8,N
1501374215.8,286046999.5,N
1501374235.6,286046999.0,N
1501374255.4,286046998.1,N
1501374275.3,286046998.2,N
1501374295.1,286046999.4,N
1501374315.8,286046997.1,N
1501374335.7,286046999.3,N
1501374355.5,286046999.0,N
1501374375.3,286046998.6,N
1501374395.2,286047000.5,N
1501374415.9,286047000.8,N
1501374435.7,286047001.2,N
1501374455.5,286046999.8,N
1501374475.4,286047002.1,N
1501374495.2,286047000.9,N
1501374515.0,286047002.3,N
1501374515.9,286047002.3,N
1501374535.8,286047000.5,N
1501374555.6,286047000.5,N
1501374575.4,286047002.7,N
1501374595.3,286047002.2,N
1501374615.1,286047002.3,N
1501374616.0,286047002.3,N
1501374635.8,286046998.8,N
1501374655.7,286046998.1,N
1501374675.5,286046998.2,N
1501374695.3,286046996.6,N
1501374715.1,286046994.9,N
1501374735.9,286046996.3,N
1501374755.7,286046995.0,N
1501374775.5,286046997.5,N
1501374795.4,286046995.4,N
1501374815.2,286046997.4,N
1501374835.0,286046999.2,N
1501374835.9,286046999.2,N
1501374855.8,286046998.3,N
1501374875.6,286047000.8,N
1501374895.4,286047001.1,N
1501374915.3,286046998.6,N
1501374935.1,286047000.0,N
1501374936.0,286047000.0,N
1501374955.8,286046999.7,N
1501374975.7,286046999.9,N
1501374995.5,286046998.5,N
1501375015.3,286046999.0,N
1501375035.1,286046998.6,N
1501375055.9,286047001.0,N
1501375075.7,286046998.2,N
1501375095.5,286046999.0,N
1501375115.4,286046999.5,N
1501375135.2,286046998.7,N
1501375155.0,286047000.7,N
1501375155.9,286047000.7,N
1501375175.8,286047000.7,N
1501375195.6,286047001.6,N
1501375215.4,286047002.1,N
1501375235.3,286047005.5,N
1501375255.1,286047001.6,N
1501375256.0,286047001.6,N
1501375275.8,286047001.0,N
1501375295.6,286047000.5,N
1501375315.5,286046999.1,N
1501375335.3,286046999.1,N
1501375355.1,286047002.2,N
1501375375.9,286047002.2,N
1501375395.7,286046998.4,N
1501375415.5,286046998.3,N
1501375435.4,286046999.4,N
1501375455.2,286046996.5,N
1501375475.0,286046996.6,N
1501375475.9,286046996.6,N
1501375495.7,286046999.0,N
1501375515.6,286047000.2,N
1501375535.4,286047000.2,N
1501375555.2,286047002.3,N
1501375575.1,286047002.0,N
1501375576.0,286047002.0,N
1501375595.8,286047002.4,N
1501375615.6,286046999.9,N
1501375635.5,286047000.3,N
1501375655.3,286047001.7,N
1501375675.1,286047000.3,N
1501375695.9,286047002.1,N
1501375715.7,286047002.1,N
1501375735.5,286047002.3,N
1501375755.4,286047001.8,N
1501375775.2,286047000.2,N
1501375795.0,286047002.4,N
1501375795.9,286047002.4,N
1501375815.7,286047001.6,N
1501375835.6,286047000.5,N
1501375855.4,286047002.3,N
1501375875.2,286047002.1,N
1501375895.1,286047002.2,N
1501375896.0,286047002.2,N
1501375915.8,286047001.5,N
1501375935.6,286047000.4,N
1501375955.5,286047000.9,N
1501375975.3,286047003.9,N
1501375995.1,286047001.9,N
1501376015.9,286047002.4,N
1501376035.7,286047002.4,N
1501376055.5,286046999.8,N
1501376075.4,286047001.3,N
1501376095.2,286047004.4,N
1501376115.0,286047001.8,N
1501376115.9,286047001.8,N
1501376135.7,286047003.6,N
1501376155.6,286047004.0,N
1501376175.4,286047001.4,N
1501376195.2,286047001.3,N
1501376215.1,286047002.5,N
1501376216.0,286047002.5,N
1501376235.8,286047001.4,N
1501376255.6,286047003.5,N
1501376275.5,286047002.2,N
1501376295.3,286047001.4,N
1501376315.1,286046999.8,N
1501376335.9,286047001.9,N
1501376355.7,286047003.3,N
1501376375.5,286047003.7,N
1501376395.3,286047003.3,N
